Flag for Turkey Weather past 2 weeks in Gelibolu, Turkey

Now
58 °F

Overcast.


Feels Like: 59 °F
Forecast: 52 / 69 °F
Wind: 3 mph from Northeast

Location: Canakkale

Current Time: Oct 24, 2014 at 11:41:20 AM

Latest Report: Oct 24, 2014 at 11:00 AM


Visibility: 13 mi

Pressure: 29.90 "Hg

Humidity: 79%

Dew point: 51 °F

Location of GeliboluLocation

Historic Weather in Gelibolu — Graph

°F

Gelibolu temperature yesterday

Maximum temperature yesterday: 73 °F (at 12:00 PM)
Minimum temperature yesterday: 62 °F (at 9:00 PM)
Average temperature yesterday: 69 °F

Past Weeks' High & Low Weather Summary

 TemperatureHumidityPressure
High75 °F (Oct 18, 4:00 PM)89% (Oct 13, 6:00 AM)30.35 "Hg (Oct 13, 6:00 AM)
Low46 °F (Oct 21, 6:00 AM)34% (Oct 14, 6:00 PM)29.54 "Hg (Oct 23, 4:00 PM)
Average66 °F66%30.00 "Hg
* Reported Oct 9 10:00 AM — Oct 24 10:00 AM, Gelibolu, Weather by CustomWeather, © 2014

Note: Actual official high and low records may vary slightly from our data, if they occured in-between our weather recording intervals... More about our weather records

Advertising

Gelibolu weather history for previous 24 hours

 ConditionsComfort  
Time TempWeatherWind HumidityBarometerVisibility
10:00 AM
Oct 24
55 °FOvercast.5 mph86%29.90 "Hg12 mi
9:00 AM54 °FPartly sunny.3 mph89%29.88 "Hg12 mi
6:00 AM54 °FPassing clouds.2 mph89%29.83 "Hg9 mi
3:00 AM56 °FPassing clouds.1 mph89%29.82 "Hg9 mi
12:00 AM58 °FThunderstorms. Overcast.2 mph87%29.78 "Hg9 mi
9:00 PM
Oct 23
62 °FOvercast.5 mph87%29.68 "Hg9 mi
8:00 PM63 °FOvercast.8 mph85%29.67 "Hg9 mi
7:00 PM63 °FThunderstorms. Overcast.13 mph89%29.63 "Hg9 mi
6:00 PM63 °FThundershowers. Overcast.17 mph89%29.58 "Hg6 mi
5:00 PM69 °FThundershowers. Overcast.21 mph79%29.54 "Hg5 mi
4:00 PM71 °FOvercast.28 mph68%29.54 "Hg9 mi
3:00 PM72 °FOvercast.33 mph63%29.54 "Hg9 mi
2:00 PM72 °FOvercast.30 mph61%29.57 "Hg9 mi
1:00 PM72 °FPartly sunny.37 mph59%29.57 "Hg9 mi
12:00 PM73 °FPartly sunny.30 mph59%29.58 "Hg9 mi
11:00 AM71 °FPartly sunny.25 mph64%29.58 "Hg9 mi
Weather by CustomWeather, © 2014

See weather overviewHow to use our weather pages